Time,TemperatureF,DewpointF,PressureIn,WindDirection,WindDirectionDegrees,WindSpeedMPH,WindSpeedGustMPH,Humidity,HourlyPrecipIn,Conditions,Clouds,dailyrainin,SolarRadiationWatts/m^2,SoftwareType,DateUTC
2013-02-14 00:50:00,14.0,11.0,30.22,SSE,157,2.0,3.0,89,-99.99,,,-99.99,0.000000,,2013-02-14 08:50:00,
2013-02-14 01:50:00,11.0,9.0,30.23,NE,37,0.0,1.0,89,-99.99,,,-99.99,0.000000,,2013-02-14 09:50:00,
2013-02-14 02:50:00,11.0,8.0,30.22,South,174,4.0,5.0,88,-99.99,,,-99.99,0.000000,,2013-02-14 10:50:00,
2013-02-14 03:50:00,11.0,8.0,30.22,SSE,153,3.0,5.0,89,-99.99,,,-99.99,0.000000,,2013-02-14 11:50:00,
2013-02-14 04:50:00,8.0,5.0,30.24,SSE,162,3.0,5.0,88,-99.99,,,-99.99,0.000000,,2013-02-14 12:50:00,
2013-02-14 05:50:00,11.0,8.0,30.25,SE,144,0.0,4.0,89,-99.99,,,-99.99,0.000000,,2013-02-14 13:50:00,
2013-02-14 06:50:00,9.0,6.0,30.26,SSE,163,3.0,5.0,86,-99.99,,,-99.99,10.000000,,2013-02-14 14:50:00,
2013-02-14 08:50:00,30.0,22.0,30.30,NW,307,1.0,2.0,74,-99.99,,,-99.99,370.000000,,2013-02-14 16:50:00,
2013-02-14 09:50:00,33.0,23.0,30.32,North,356,4.0,7.0,66,-99.99,,,-99.99,560.000000,,2013-02-14 17:50:00,
2013-02-14 10:50:00,34.0,24.0,30.32,North,358,8.0,12.0,65,-99.99,,,-99.99,660.000000,,2013-02-14 18:50:00,
2013-02-14 11:50:00,36.0,25.0,30.32,NNW,338,11.0,19.0,63,-99.99,,,-99.99,700.000000,,2013-02-14 19:50:00,
2013-02-14 12:50:00,37.0,24.0,30.30,NNW,346,11.0,16.0,59,-99.99,,,-99.99,670.000000,,2013-02-14 20:50:00,
2013-02-14 13:50:00,38.0,23.0,30.29,NNW,331,11.0,16.0,56,-99.99,,,-99.99,580.000000,,2013-02-14 21:50:00,
2013-02-14 14:50:00,38.0,21.0,30.30,NNW,338,11.0,15.0,49,-99.99,,,-99.99,430.000000,,2013-02-14 22:50:00,
2013-02-14 15:50:00,37.0,20.0,30.31,North,354,10.0,14.0,50,-99.99,,,-99.99,250.000000,,2013-02-14 23:50:00,
2013-02-14 16:31:00,37.0,20.0,30.31,North,354,10.0,14.0,50,-99.99,,,-99.99,250.000000,,2013-02-15 00:31:00,
2013-02-14 16:41:00,37.0,20.0,30.31,North,354,10.0,14.0,50,-99.99,,,-99.99,250.000000,,2013-02-15 00:41:00,
2013-02-14 16:50:00,33.0,23.0,30.32,NNW,328,6.0,9.0,65,-99.99,,,-99.99,50.000000,,2013-02-15 00:50:00,
2013-02-14 17:21:00,33.0,23.0,30.32,NNW,328,6.0,9.0,65,-99.99,,,-99.99,50.000000,,2013-02-15 01:21:00,
2013-02-14 17:31:00,33.0,23.0,30.32,NNW,328,6.0,9.0,65,-99.99,,,-99.99,50.000000,,2013-02-15 01:31:00,
2013-02-14 17:41:00,33.0,23.0,30.32,NNW,328,6.0,9.0,65,-99.99,,,-99.99,50.000000,,2013-02-15 01:41:00,
2013-02-14 17:50:00,27.0,21.0,30.33,NNE,18,4.0,7.0,77,-99.99,,,-99.99,0.000000,,2013-02-15 01:50:00,
2013-02-14 18:50:00,25.0,19.0,30.33,North,353,2.0,3.0,80,-99.99,,,-99.99,0.000000,,2013-02-15 02:50:00,
2013-02-14 19:50:00,22.0,18.0,30.35,South,183,1.0,2.0,82,-99.99,,,-99.99,0.000000,,2013-02-15 03:50:00,
2013-02-14 20:50:00,20.0,17.0,30.36,ESE,104,2.0,4.0,88,-99.99,,,-99.99,0.000000,,2013-02-15 04:50:00,
2013-02-14 22:50:00,16.0,14.0,30.36,SE,131,3.0,7.0,92,-99.99,,,-99.99,0.000000,,2013-02-15 06:50:00,
2013-02-14 23:50:00,15.0,12.0,30.37,SE,134,1.0,2.0,89,-99.99,,,-99.99,0.000000,,2013-02-15 07:50:00,